• Join FlightAware (Why Join?)
  • Login
  • US Flag 
08:54PM EDT


 

Airport Tracker/Info


-or-


 

Live Flight TrackerFlight Track Log ✈ SWA706 ✈ 18-May-2013 ✈ KSLC - KPHX

Flight Track Log - Related Links

Times and Time Zones

All times are in EDT time to prevent confusion due to time zone crossing. See the SWA706 flight status page for this flight to view local times or setup timezone preferences in your user account.

Time Position Orientation Groundspeed Altitude Reporting Facility
EDT Latitude Longitude Course Direction KTS MPH feet Rate Location/Type
08:44PM 40.8211 -112.0650 289° West 218 251 8,000  Level Salt Lake Center
08:44PM 40.8278 -112.1200 279° West 251 289 10,000 3,180 Climbing Salt Lake Center
08:45PM 40.7900 -112.2175 243° Southwest 317 365 13,100 3,420 Climbing Salt Lake Center
08:46PM 40.6972 -112.2444 192° South 343 395 17,000 3,720 Climbing Salt Lake Center
08:48PM 40.5989 -112.2772 194° South 363 418 20,700 3,300 Climbing Salt Lake Center
08:49PM 40.4956 -112.3092 193° South 382 440 23,800 2,880 Climbing Salt Lake Center
08:50PM 40.3869 -112.3431 193° South 400 460 26,600 2,640 Climbing Salt Lake Center
08:51PM 40.2719 -112.3614 187° South 416 479 29,200 2,100 Climbing Salt Lake Center
08:52PM 40.1494 -112.3622 180° South 441 507 30,900 1,860 Climbing Salt Lake Center
08:53PM 40.0219 -112.3636 180° South 457 526 33,100 2,160 Climbing Salt Lake Center
08:54PM 39.8956 -112.3625 180° South 456 525 35,300 1,800 Climbing Salt Lake Center
08:55PM 39.7422 -112.3661 181° South 458 527 36,800 780 Climbing Salt Lake Center
08:56PM 39.6078 -112.3667 180° South 477 549 37,000 60 Climbing Salt Lake Center
08:57PM 39.4792 -112.3686 181° South 464 534 37,000  Level Salt Lake Center
08:58PM 39.3461 -112.3708 181° South 474 545 37,000  Level Salt Lake Center
08:59PM 39.2006 -112.3706 180° South 486 559 37,000  Level Salt Lake Center
09:00PM 39.0650 -112.3731 181° South 487 560 37,000  Level Salt Lake Center
09:01PM 38.9297 -112.3750 181° South 486 559 37,000  Level Salt Lake Center
09:02PM 38.7950 -112.3769 181° South 484 557 37,000  Level Salt Lake Center
09:03PM 38.6597 -112.3783 180° South 485 558 37,000  Level Salt Lake Center
09:04PM 38.5244 -112.3803 181° South 486 559 37,000  Level Salt Lake Center
09:05PM 38.3872 -112.3814 180° South 492 566 37,000  Level Salt Lake Center
09:06PM 38.2497 -112.3825 180° South 493 567 37,000  Level Salt Lake Center
09:07PM 38.1108 -112.3839 180° South 497 572 37,000  Level Salt Lake Center
09:08PM 37.9767 -112.3833 180° South 485 558 37,000  Level Salt Lake Center
09:09PM 37.8450 -112.3844 180° South 473 544 37,000  Level Salt Lake Center
09:10PM 37.7136 -112.3850 180° South 470 541 37,000  Level Salt Lake Center
09:11PM 37.5817 -112.3861 180° South 469 540 37,000  Level Salt Lake Center
09:12PM 37.4506 -112.3867 180° South 468 539 37,000  Level Salt Lake Center
09:13PM 37.3206 -112.3872 180° South 466 536 37,000  Level Salt Lake Center
09:14PM 37.1889 -112.3892 181° South 467 537 37,000  Level Salt Lake Center
09:15PM 37.0564 -112.3897 180° South 470 541 37,000 -360 Level Salt Lake Center
09:15PM 37.0014 -112.3939 183° South 471 542 36,600 -1,080 Descending Los Angeles Center
09:16PM 36.8694 -112.3956 181° South 472 543 35,600 -960 Descending Los Angeles Center
09:17PM 36.7372 -112.3956 180° South 473 544 34,700 -960 Descending Los Angeles Center
09:18PM 36.6031 -112.3969 180° South 476 548 33,700 -840 Descending Los Angeles Center
09:19PM 36.4708 -112.3981 180° South 477 549 33,000 -360 Descending Los Angeles Center
09:20PM 36.3392 -112.3992 180° South 475 547 33,000  Level Los Angeles Center
09:21PM 36.2061 -112.4008 181° South 476 548 33,000  Level Los Angeles Center
09:22PM 36.0478 -112.4000 180° South 475 547 33,000  Level Los Angeles Center
09:23PM 35.9194 -112.4053 182° South 472 543 33,000 -420 Level Los Angeles Center
09:24PM 35.7875 -112.4144 183° South 472 543 32,200 -1,200 Descending Los Angeles Center
09:25PM 35.6564 -112.4197 182° South 472 543 30,600 -1,620 Descending Los Angeles Center
09:26PM 35.5258 -112.4281 183° South 470 541 29,000 -840 Descending Los Angeles Center
09:27PM 35.3961 -112.4375 183° South 468 539 29,000  Level Los Angeles Center
09:28PM 35.3442 -112.4261 170° South 473 544 29,000  Level Albuquerque Center
09:29PM 35.2117 -112.3961 170° South 482 555 29,000  Level Albuquerque Center
09:30PM 35.0814 -112.3650 169° South 477 549 29,000  Level Albuquerque Center
09:31PM 34.9247 -112.3306 170° South 477 549 29,000 -360 Level Albuquerque Center
09:32PM 34.7953 -112.3003 169° South 475 547 28,300 -1,440 Descending Albuquerque Center
09:33PM 34.6733 -112.2719 169° South 466 536 26,100 -2,280 Descending Albuquerque Center
09:34PM 34.5517 -112.2444 169° South 452 520 23,700 -2,280 Descending Albuquerque Center
09:35PM 34.4344 -112.2169 169° South 438 504 21,500 -2,160 Descending Albuquerque Center
09:36PM 34.3208 -112.1903 169° South 424 488 19,300 -2,220 Descending Albuquerque Center
09:37PM 34.2097 -112.1639 169° South 413 475 17,000 -1,860 Descending Albuquerque Center
09:38PM 34.0878 -112.1364 169° South 375 432 15,600 -1,440 Descending Albuquerque Center
09:39PM 33.9969 -112.1139 168° South 340 391 14,100 -1,500 Descending Albuquerque Center
09:40PM 33.9089 -112.0903 167° South 329 379 12,600 -1,500 Descending Albuquerque Center
09:41PM 33.8244 -112.0700 169° South 316 364 11,100 -1,320 Descending Albuquerque Center
09:42PM 33.7431 -112.0497 168° South 303 349 10,000 -540 Descending Albuquerque Center
09:43PM 33.6625 -112.0364 172° South 293 337 10,000 -60 Level Albuquerque Center
09:44PM 33.5822 -112.0225 172° South 293 337 9,900 -960 Descending Albuquerque Center
09:45PM 33.4869 -112.0069 172° South 287 330 8,100 -1,380 Descending Albuquerque Center
09:46PM 33.4197 -111.9731 157° South 266 306 7,100 -540 Descending Albuquerque Center
09:47PM 33.3644 -111.9233 143° Southeast 256 295 7,000 -540 Descending Albuquerque Center
09:48PM 33.3508 -111.8444 102° East 246 283 6,000 -840 Descending Albuquerque Center
09:49PM 33.3386 -111.7767 102° East 215 247 5,400 -540 Descending Albuquerque Center
09:50PM 33.3442 -111.7133 84° East 203 234 5,000 -420 Descending Albuquerque Center
09:51PM 33.3872 -111.7428 330° Northwest 179 206 4,600 -360 Descending Albuquerque Center
09:52PM 33.4117 -111.7828 306° West 172 198 4,300 -360 Descending Albuquerque Center
09:53PM 33.4283 -111.8331 292° West 173 199 3,900 -600 Descending Albuquerque Center
09:54PM 33.4289 -111.8864 271° West 162 186 3,100 -960 Descending Albuquerque Center
09:56PM 33.4300 -111.9453 271° West 145 167 2,000 -840 Descending Albuquerque Center
09:57PM 33.4286 -111.9881 268° West 130 150 1,400 -600 Descending Albuquerque Center